Location: Oso Ridge
(35.0450°N, 108.0864°W)
Time: 22:51:57
(UTC-06:00)

Amateur Radio Satellites - All Passes

Search period start: 28 July 2015 22:21
Search period end: 29 July 2015 22:21
Location: Oso Ridge, 35.0450°N, 108.0864°W

Satellite Date Start Highest point End Downlink Frequencies (MHz)
Time Altitude Azimuth
VERMONT LUNAR 28 Jul 22:30:21 22:33:11 29° 357° (N) 22:36:01 437.305
ANTELSAT 28 Jul 22:35:15 22:37:14 13° 90° (E) 22:39:31 437.575/2403.000
TIGRISAT 28 Jul 22:35:22 22:37:07 12° 90° (E) 22:39:10 435.000
AAUSAT CUBESAT 2 28 Jul 22:36:52 22:39:31 16° 268° (W) 22:42:00 437.432
ZACube-1 28 Jul 22:37:58 22:42:04 61° 260° (W) 22:46:15 437.345
AUBIESAT-1 28 Jul 22:43:45 22:48:29 64° 105° (ESE) 22:53:06 437.475
DELFI C3 28 Jul 22:48:12 22:51:58 38° 262° (W) 22:55:46 145.870
HO-68 28 Jul 22:52:17 22:56:00 14° 271° (W) 22:59:10 435.675
UWE-3 28 Jul 22:53:50 22:57:30 29° 264° (W) 23:01:09 435.000/436.395/437.385
FUNcube-1 28 Jul 23:01:53 23:05:38 32° 264° (W) 23:09:24 145.935
CUBEBUG 2 28 Jul 23:02:15 23:05:13 18° 267° (W) 23:08:05 437.445
AISAT 28 Jul 23:03:53 23:07:59 40° 73° (ENE) 23:12:08 437.250
50 SAT 28 Jul 23:06:29 23:10:11 46° 75° (ENE) 23:13:57 437.505
PHONESAT 2.4 28 Jul 23:19:19 23:22:41 44° 347° (NNW) 23:26:03 2401.200-2431.200
UKube-1 28 Jul 23:21:31 23:25:50 76° 258° (WSW) 23:30:10 .
DUCHIFAT 1 28 Jul 23:24:02 23:26:16 14° 92° (E) 23:28:42 145.980
Oscar 11 28 Jul 23:24:10 23:25:36 11° 270° (W) 23:26:45 145.826/435.025
QB50P1 28 Jul 23:24:11 23:26:37 15° 92° (E) 23:29:14 145.935-145.965
UNISAT 6 28 Jul 23:24:45 23:29:16 47° 99° (E) 23:33:49 437.425
NANOSAT C BR1 28 Jul 23:26:51 23:29:26 16° 93° (E) 23:32:12 145.865
RS-15 28 Jul 23:28:11 23:38:57 61° 306° (NW) 23:50:02 29.354- 29.394
CUBEBUG 1 28 Jul 23:29:57 23:34:03 42° 74° (ENE) 23:38:11 437.445
ISS 28 Jul 23:35:57 23:38:33 21° 328° (NNW) 23:41:07 145.825
ESTCUBE 1 28 Jul 23:40:19 23:44:50 70° 76° (ENE) 23:49:22 437.505/2401.250
Cosmos 2491 28 Jul 23:43:29 23:51:23 39° 74° (ENE) 23:59:24 435.465 / 435.565
VELOX 1 28 Jul 23:43:47 23:48:11 71° 258° (WSW) 23:52:36 145.980
DX 1 28 Jul 23:44:07 23:48:09 36° 262° (W) 23:52:10 434.975-435.025
M-CUBED/EXP-1 PRIME 28 Jul 23:45:52 23:49:48 25° 295° (WNW) 23:53:35 437.505
BEESAT 2 28 Jul 23:51:35 23:53:29 13° 110° (ESE) 23:55:35 435.950
HUMSAT D 28 Jul 23:57:20 00:00:12 18° 267° (W) 00:02:58 437.325/437.525
POLYITAN 1 29 Jul 00:03:57 00:08:05 48° 99° (E) 00:12:14 437.675
YUBILEINY 29 Jul 00:03:58 00:10:15 24° 84° (E) 00:16:56 435.215
VERMONT LUNAR 29 Jul 00:07:19 00:10:21 41° 14° (NNE) 00:13:21 437.305
TIGRISAT 29 Jul 00:09:39 00:14:14 55° 285° (WNW) 00:18:49 435.000
ANTELSAT 29 Jul 00:09:48 00:14:22 53° 285° (WNW) 00:18:57 437.575/2403.000
AIST 1 29 Jul 00:11:03 00:15:17 65° 82° (E) 00:19:30
AUBIESAT-1 29 Jul 00:20:18 00:22:41 13° 298° (WNW) 00:24:47 437.475
SPROUT 29 Jul 00:20:27 00:24:29 43° 74° (ENE) 00:28:34 437.525
POPSAT HIP 1 29 Jul 00:22:29 00:26:45 80° 102° (ESE) 00:31:01 437.405
QB50P2 29 Jul 00:29:10 00:33:26 81° 284° (WNW) 00:37:42 145.880/145.840
BEESAT 3 29 Jul 00:34:37 00:38:36 59° 116° (ESE) 00:42:38 437.485
AISAT 29 Jul 00:42:09 00:44:47 15° 268° (W) 00:47:11 437.250
BUGSAT 1 29 Jul 00:46:31 00:50:35 86° 283° (WNW) 00:54:41 437.445
TISAT 1 29 Jul 00:46:59 00:51:03 55° 75° (ENE) 00:55:09 437.305
PHONESAT 2.4 29 Jul 00:57:54 01:01:05 32° 3° (N) 01:04:17 2401.200-2431.200
DUCHIFAT 1 29 Jul 00:58:19 01:02:16 38° 287° (WNW) 01:06:11 145.980
QB50P1 29 Jul 00:58:43 01:02:38 36° 287° (WNW) 01:06:31 145.935-145.965
AIST 2 29 Jul 00:58:45 01:01:23 17° 110° (ESE) 01:04:11 435.215
NANOSAT C BR1 29 Jul 01:01:32 01:05:24 34° 287° (WNW) 01:09:13 145.865
UNISAT 6 29 Jul 01:02:53 01:05:41 15° 292° (WNW) 01:08:18 437.425
CUBEBUG 1 29 Jul 01:08:16 01:10:39 14° 268° (W) 01:12:49 437.445
BEESAT 29 Jul 01:17:44 01:21:08 20° 69° (ENE) 01:24:41 436.000
BEESAT 2 29 Jul 01:27:16 01:31:11 43° 303° (WNW) 01:35:09 435.950
SWISSCUBE 29 Jul 01:36:42 01:41:00 35° 72° (ENE) 01:45:23 437.505
Cosmos 2491 29 Jul 01:40:19 01:48:16 40° 272° (W) 01:56:04 435.465 / 435.565
POLYITAN 1 29 Jul 01:41:39 01:43:37 13° 292° (WNW) 01:45:22 437.675
VERMONT LUNAR 29 Jul 01:44:07 01:47:07 42° 209° (SSW) 01:50:04 437.305
RS-15 29 Jul 01:47:10 01:54:34 19° 334° (NNW) 02:01:44 29.354- 29.394
ITUPSAT 1 29 Jul 01:55:30 02:00:08 49° 74° (ENE) 02:04:48 437.325
YUBILEINY 29 Jul 01:57:54 02:06:29 62° 280° (W) 02:15:07 435.215
SPROUT 29 Jul 01:58:50 02:00:51 13° 269° (W) 02:02:38 437.525
Oscar 19 29 Jul 02:09:07 02:13:54 38° 97° (E) 02:18:44 437.125/150
BEESAT 3 29 Jul 02:15:10 02:16:59 12° 314° (NW) 02:18:37 437.485
O/OREOS (USA 219) 29 Jul 02:28:27 02:32:50 62° 107° (ESE) 02:37:17 437.305
AIST 2 29 Jul 02:35:43 02:39:41 38° 304° (NW) 02:43:41 435.215
PHONESAT 2.4 29 Jul 02:35:54 02:39:24 68° 21° (NNE) 02:42:50 2401.200-2431.200
Gurwin Techsat 1B 29 Jul 02:39:54 02:43:48 21° 93° (E) 02:47:53 435.225
STARS 29 Jul 02:50:39 02:53:25 17° 69° (ENE) 02:56:21 437.465
BEESAT 29 Jul 02:54:19 02:58:45 36° 263° (W) 03:03:10 436.000
Cosmos 2504 29 Jul 03:04:47 03:11:09 41° 89° (E) 03:17:59 435.465 / 435.565
KKS-1 29 Jul 03:06:55 03:11:07 45° 74° (ENE) 03:15:22 437.445
SWISSCUBE 29 Jul 03:15:20 03:18:57 21° 266° (W) 03:22:28 437.505
JAS-2 29 Jul 03:18:52 03:25:00 26° 91° (E) 03:31:20 435.910
ITAMSAT 1 29 Jul 03:22:05 03:27:06 50° 99° (E) 03:32:06 435.822/435.867
AO-7 29 Jul 03:26:54 03:28:10 11° 87° (E) 03:30:20 29.400- 29.500
ITUPSAT 1 29 Jul 03:35:39 03:38:21 14° 269° (W) 03:40:49 437.325
Oscar 19 29 Jul 03:49:03 03:53:03 22° 292° (WNW) 03:56:56 437.125/150
HORYU 2 29 Jul 04:08:00 04:10:49 17° 93° (E) 04:13:49 437.375
RS-15 29 Jul 04:08:52 04:13:41 13° 11° (N) 04:18:50 29.354- 29.394
O/OREOS (USA 219) 29 Jul 04:11:17 04:12:48 11° 305° (NW) 04:14:04 437.305
PHONESAT 2.4 29 Jul 04:14:20 04:17:09 23° 214° (SW) 04:19:56 2401.200-2431.200
Gurwin Techsat 1B 29 Jul 04:19:00 04:23:58 40° 288° (WNW) 04:28:51 435.225
STARS 29 Jul 04:25:36 04:29:37 35° 262° (W) 04:33:38 437.465
ISS 29 Jul 04:30:01 04:31:43 14° 27° (NNE) 04:33:29 145.825
KKS-1 29 Jul 04:45:50 04:48:02 13° 269° (W) 04:50:01 437.445
Cosmos 2504 29 Jul 04:57:25 05:03:31 30° 288° (WNW) 05:09:46 435.465 / 435.565
JUGNU 29 Jul 05:01:43 05:04:27 13° 169° (S) 05:07:17 437.505
JAS-2 29 Jul 05:02:45 05:10:27 61° 287° (WNW) 05:18:01 435.910
ITAMSAT 1 29 Jul 05:02:49 05:06:15 17° 294° (WNW) 05:09:28 435.822/435.867
DANDE 29 Jul 05:05:18 05:08:54 35° 98° (E) 05:11:50 436.750
MOZHAYETS 4 29 Jul 05:08:20 05:12:57 74° 259° (WSW) 05:17:36
AO-7 29 Jul 05:14:09 05:22:30 75° 105° (ESE) 05:30:48 29.400- 29.500
CUBESAT XI-V 29 Jul 05:19:47 05:20:34 11° 66° (ENE) 05:21:40 437.345
HORYU 2 29 Jul 05:43:27 05:47:37 37° 287° (WNW) 05:51:45 437.375
CUSAT 1 29 Jul 05:51:14 05:53:51 21° 281° (W) 05:56:06 437.405
STRAND 1 29 Jul 06:03:33 06:04:41 11° 64° (ENE) 06:06:09 437.568
ISS 29 Jul 06:05:15 06:08:31 75° 224° (SW) 06:11:45 145.825
RS-15 29 Jul 06:21:06 06:31:22 35° 43° (NE) 06:42:13 29.354- 29.394
GONETS M04 29 Jul 06:38:44 06:47:09 57° 92° (E) 06:55:38
Cubesat XI-IV 29 Jul 06:46:34 06:51:03 28° 95° (E) 06:55:37 437.490
SRMSAT 29 Jul 06:47:02 06:49:42 13° 169° (SSE) 06:52:27 437.500
JUGNU 29 Jul 06:48:57 06:52:46 18° 179° (S) 06:56:35 437.505
JAS-2 29 Jul 06:52:25 06:54:12 11° 302° (WNW) 06:55:23 435.910
CUBESAT XI-V 29 Jul 06:52:49 06:57:30 70° 259° (W) 07:02:11 437.345
Cosmos 2499 29 Jul 06:57:18 06:57:58 10° 79° (E) 06:59:19 435.465 / 435.565
AO-7 29 Jul 07:08:24 07:14:35 23° 301° (WNW) 07:20:26 29.400- 29.500
STRAND 1 29 Jul 07:38:09 07:43:18 80° 259° (WSW) 07:48:29 437.568
CUTE-I 29 Jul 07:42:57 07:48:17 81° 286° (WNW) 07:53:35 437.470
PRISM 29 Jul 07:50:14 07:54:23 62° 259° (WSW) 07:58:33 437.425
Cubesat XI-IV 29 Jul 08:26:28 08:31:09 31° 290° (WNW) 08:35:43 437.490
RS-15 29 Jul 08:33:07 08:44:56 72° 245° (WSW) 08:57:03 29.354- 29.394
HO-68 29 Jul 08:33:11 08:37:44 19° 91° (E) 08:42:41 435.675
SRMSAT 29 Jul 08:34:19 08:38:09 18° 178° (S) 08:42:00 437.500
GONETS M04 29 Jul 08:37:19 08:44:33 27° 290° (WNW) 08:51:29
JUGNU 29 Jul 08:37:49 08:41:04 15° 189° (S) 08:44:16 437.505
Cosmos 2499 29 Jul 08:42:40 08:49:53 82° 95° (E) 08:57:41 435.465 / 435.565
BRITE-PL 29 Jul 08:55:50 09:00:12 76° 103° (ESE) 09:04:51 437.365/2234.400
M-CUBED/EXP-1 PRIME 29 Jul 08:56:31 08:59:29 22° 64° (ENE) 09:02:45 437.505
BEESAT 3 29 Jul 08:57:19 08:59:32 15° 48° (NE) 09:01:52 437.485
GOMX 1 29 Jul 09:23:33 09:28:03 89° 102° (ESE) 09:32:51 467.674
DOVE 4 29 Jul 09:28:11 09:32:42 60° 100° (E) 09:37:31 437.250
AUBIESAT-1 29 Jul 09:28:19 09:32:00 43° 69° (ENE) 09:36:01 437.475
COMPASS 1 29 Jul 09:36:58 09:40:49 34° 97° (E) 09:44:40 437.405
Oscar 11 29 Jul 09:37:30 09:39:05 12° 90° (E) 09:40:55 145.826/435.025
CUTE 1.7 + AOD 2 29 Jul 09:43:42 09:48:00 71° 101° (E) 09:52:16 437.475
SEEDS 29 Jul 09:46:15 09:50:28 59° 100° (E) 09:54:39 437.485
BEESAT 2 29 Jul 09:49:15 09:53:03 38° 56° (NE) 09:56:49 435.950
CANX-2 29 Jul 09:51:33 09:55:53 82° 283° (WNW) 10:00:10 2200.000
CINEMA 3 29 Jul 10:01:41 10:06:17 61° 100° (E) 10:11:07 145.822/145.860
PCSat 29 Jul 10:03:49 10:09:09 68° 114° (ESE) 10:14:34 145.827
HO-68 29 Jul 10:18:59 10:26:07 69° 288° (WNW) 10:33:15 435.675
AAUSAT CUBESAT 2 29 Jul 10:21:02 10:25:16 79° 282° (WNW) 10:29:26 437.432
UNISAT 6 29 Jul 10:21:07 10:24:43 27° 71° (ENE) 10:28:27 437.425
SRMSAT 29 Jul 10:23:15 10:26:37 15° 188° (S) 10:29:57 437.500
ZACube-1 29 Jul 10:29:39 10:33:42 32° 96° (E) 10:37:50 437.345
DELFI C3 29 Jul 10:30:18 10:33:59 33° 97° (E) 10:37:40 145.870
M-CUBED/EXP-1 PRIME 29 Jul 10:30:59 10:34:11 25° 261° (W) 10:37:33 437.505
BEESAT 3 29 Jul 10:33:54 10:37:45 45° 245° (WSW) 10:41:33 437.485
SO-50 29 Jul 10:39:11 10:43:54 79° 300° (WNW) 10:48:47 436.795
Cosmos 2499 29 Jul 10:40:05 10:44:20 15° 297° (WNW) 10:48:14 435.465 / 435.565
UWE-3 29 Jul 10:45:46 10:50:21 67° 101° (ESE) 10:54:59 435.000/436.395/437.385
RS-15 29 Jul 10:50:33 10:55:59 13° 259° (W) 11:00:09 29.354- 29.394
FUNcube-1 29 Jul 10:52:32 10:57:00 58° 100° (E) 11:01:31 145.935
POLYITAN 1 29 Jul 10:54:20 10:57:39 24° 71° (ENE) 11:01:03 437.675
CUBEBUG 2 29 Jul 10:54:26 10:59:04 76° 283° (WNW) 11:03:47 437.445
AIST 2 29 Jul 11:00:10 11:04:14 49° 57° (ENE) 11:08:14 435.215
TIGRISAT 29 Jul 11:05:03 11:09:19 87° 79° (E) 11:13:43 435.000
ANTELSAT 29 Jul 11:05:23 11:09:41 89° 249° (WSW) 11:14:06 437.575/2403.000
AUBIESAT-1 29 Jul 11:05:32 11:07:07 12° 267° (W) 11:08:31 437.475
DOVE 4 29 Jul 11:08:13 11:10:08 12° 291° (WNW) 11:11:49 437.250
Oscar 11 29 Jul 11:11:23 11:15:35 48° 285° (WNW) 11:19:45 145.826/435.025
POPSAT HIP 1 29 Jul 11:12:09 11:16:00 37° 73° (ENE) 11:19:54 437.405
UKube-1 29 Jul 11:12:53 11:16:13 22° 95° (E) 11:19:38 .
COMPASS 1 29 Jul 11:13:28 11:16:13 17° 291° (WNW) 11:18:48 437.405
QB50P2 29 Jul 11:18:46 11:22:47 47° 74° (ENE) 11:26:52 145.880/145.840
SEEDS 29 Jul 11:25:10 11:25:48 10° 293° (WNW) 11:26:08 437.485
BEESAT 2 29 Jul 11:28:26 11:30:48 15° 250° (WSW) 11:32:59 435.950
BUGSAT 1 29 Jul 11:33:24 11:37:11 40° 74° (ENE) 11:41:00 437.445
DX 1 29 Jul 11:35:19 11:39:29 46° 99° (E) 11:43:40 434.975-435.025
ESTCUBE 1 29 Jul 11:37:19 11:40:24 19° 93° (E) 11:43:36 437.505/2401.250
VELOX 1 29 Jul 11:37:53 11:41:35 27° 96° (E) 11:45:23 145.980
CINEMA 3 29 Jul 11:41:06 11:43:06 12° 292° (WNW) 11:44:53 145.822/145.860
HUMSAT D 29 Jul 11:42:44 11:47:05 89° 283° (WNW) 11:51:24 437.325/437.525
DUCHIFAT 1 29 Jul 11:46:52 11:51:03 82° 258° (WSW) 11:55:15 145.980
QB50P1 29 Jul 11:47:38 11:51:50 76° 258° (WSW) 11:56:02 145.935-145.965
PCSat 29 Jul 11:49:43 11:53:10 16° 312° (NW) 11:56:26 145.827
NANOSAT C BR1 29 Jul 11:50:12 11:54:23 72° 258° (WSW) 11:58:35 145.865
UNISAT 6 29 Jul 11:58:09 12:01:30 21° 266° (W) 12:04:49 437.425
DELFI C3 29 Jul 12:06:17 12:08:49 16° 290° (WNW) 12:11:08 145.870
ZACube-1 29 Jul 12:06:27 12:09:52 21° 290° (WNW) 12:13:12 437.345
HO-68 29 Jul 12:10:45 12:12:47 11° 303° (WNW) 12:14:18 435.675
YUBILEINY 29 Jul 12:11:57 12:20:36 58° 79° (ENE) 12:29:16 435.215
50 SAT 29 Jul 12:19:11 12:23:09 69° 284° (WNW) 12:27:05 437.505
SO-50 29 Jul 12:24:12 12:25:22 11° 320° (NW) 12:26:16 436.795
UWE-3 29 Jul 12:25:08 12:26:24 11° 293° (WNW) 12:27:23 435.000/436.395/437.385
POLYITAN 1 29 Jul 12:30:06 12:33:29 23° 265° (W) 12:36:47 437.675
FUNcube-1 29 Jul 12:31:02 12:32:53 12° 292° (WNW) 12:34:31 145.935
AISAT 29 Jul 12:33:46 12:38:07 61° 285° (WNW) 12:42:28 437.250
AIST 1 29 Jul 12:36:54 12:41:03 45° 93° (E) 12:45:14
TISAT 1 29 Jul 12:37:03 12:38:05 11° 90° (E) 12:39:23 437.305
Cosmos 2491 29 Jul 12:40:09 12:48:26 50° 90° (E) 12:56:47 435.465 / 435.565
AIST 2 29 Jul 12:40:47 12:42:23 12° 251° (WSW) 12:43:45 435.215
O/OREOS (USA 219) 29 Jul 12:41:31 12:46:06 70° 69° (ENE) 12:50:40 437.305
UKube-1 29 Jul 12:48:41 12:52:19 26° 289° (WNW) 12:55:51 .
POPSAT HIP 1 29 Jul 12:49:41 12:52:03 14° 268° (W) 12:54:15 437.405
QB50P2 29 Jul 12:57:33 12:59:01 11° 270° (W) 13:00:12 145.880/145.840
Cosmos 2504 29 Jul 12:57:44 12:59:16 11° 61° (ENE) 13:01:38 435.465 / 435.565
CUBEBUG 1 29 Jul 12:57:54 13:02:09 58° 285° (WNW) 13:06:24 437.445
BUGSAT 1 29 Jul 13:11:01 13:12:53 12° 268° (W) 13:14:32 437.445
DX 1 29 Jul 13:13:09 13:15:23 14° 293° (WNW) 13:17:24 434.975-435.025
ESTCUBE 1 29 Jul 13:13:19 13:17:22 33° 288° (WNW) 13:21:21 437.505/2401.250
VELOX 1 29 Jul 13:14:34 13:18:02 22° 290° (WNW) 13:21:23 145.980
Oscar 19 29 Jul 13:22:52 13:27:33 39° 72° (ENE) 13:32:20 437.125/150
SWISSCUBE 29 Jul 13:42:41 13:43:52 11° 89° (E) 13:45:24 437.505
SPROUT 29 Jul 13:45:56 13:50:10 57° 284° (WNW) 13:54:21 437.525
Gurwin Techsat 1B 29 Jul 13:57:51 14:02:05 26° 69° (ENE) 14:06:27 435.225
ITUPSAT 1 29 Jul 14:00:37 14:03:32 17° 92° (E) 14:06:40 437.325
YUBILEINY 29 Jul 14:09:52 14:16:57 27° 275° (W) 14:23:42 435.215
TISAT 1 29 Jul 14:10:06 14:14:10 49° 286° (WNW) 14:18:14 437.305
AIST 1 29 Jul 14:17:04 14:19:02 12° 289° (WNW) 14:20:44
AO-7 29 Jul 14:21:55 14:25:46 15° 54° (NE) 14:30:08 29.400- 29.500
ITAMSAT 1 29 Jul 14:36:44 14:41:48 55° 74° (ENE) 14:46:55 435.822/435.867
Cosmos 2491 29 Jul 14:37:58 14:45:38 31° 288° (WNW) 14:53:03 435.465 / 435.565
Cosmos 2504 29 Jul 14:44:52 14:53:15 69° 81° (E) 15:01:51 435.465 / 435.565
BEESAT 29 Jul 14:57:20 15:02:07 73° 103° (ESE) 15:06:52 436.000
Oscar 19 29 Jul 15:03:17 15:07:06 20° 267° (W) 15:10:45 437.125/150
KKS-1 29 Jul 15:03:30 15:04:47 11° 90° (E) 15:06:22 437.445
HORYU 2 29 Jul 15:05:05 15:06:10 11° 66° (ENE) 15:07:32 437.375
JAS-2 29 Jul 15:11:31 15:16:59 44° 70° (ENE) 15:23:12 435.910
SWISSCUBE 29 Jul 15:17:29 15:22:13 61° 285° (WNW) 15:26:53 437.505
Gurwin Techsat 1B 29 Jul 15:37:05 15:41:55 34° 263° (W) 15:46:43 435.225
ITUPSAT 1 29 Jul 15:37:09 15:41:40 42° 288° (WNW) 15:46:08 437.325
DANDE 29 Jul 15:45:59 15:48:50 21° 79° (E) 15:52:26 436.750
AO-7 29 Jul 16:09:04 16:17:23 75° 71° (ENE) 16:25:46 29.400- 29.500
STARS 29 Jul 16:18:01 16:22:19 51° 100° (E) 16:26:38 437.465
ITAMSAT 1 29 Jul 16:18:39 16:21:42 15° 269° (W) 16:24:30 435.822/435.867
CUSAT 1 29 Jul 16:26:22 16:30:28 73° 262° (W) 16:35:59 437.405
KKS-1 29 Jul 16:37:27 16:41:49 53° 285° (WNW) 16:46:09 437.445
HORYU 2 29 Jul 16:37:58 16:42:20 61° 259° (W) 16:46:46 437.375
BEESAT 29 Jul 16:38:25 16:39:25 10° 295° (WNW) 16:40:06 436.000
Cosmos 2504 29 Jul 16:38:38 16:44:52 22° 276° (W) 16:50:47 435.465 / 435.565
GONETS M04 29 Jul 16:53:57 17:00:21 23° 68° (ENE) 17:07:08
JAS-2 29 Jul 16:57:44 17:02:26 24° 270° (W) 17:07:24 435.910
MOZHAYETS 4 29 Jul 17:07:03 17:11:13 33° 96° (E) 17:15:23
CUTE-I 29 Jul 17:24:50 17:27:16 14° 65° (ENE) 17:30:01 437.470
DANDE 29 Jul 17:28:48 17:31:53 22° 262° (W) 17:35:31 436.750
STARS 29 Jul 17:56:19 17:58:23 13° 293° (WNW) 18:00:12 437.465
AO-7 29 Jul 18:05:04 18:11:02 20° 268° (W) 18:16:32 29.400- 29.500
Cubesat XI-IV 29 Jul 18:05:20 18:10:06 34° 71° (ENE) 18:14:57 437.490
VERMONT LUNAR 29 Jul 18:16:13 18:17:31 12° 143° (SE) 18:18:53 437.305
Cosmos 2499 29 Jul 18:37:31 18:44:26 27° 70° (ENE) 18:51:44 435.465 / 435.565
MOZHAYETS 4 29 Jul 18:44:47 18:48:14 20° 290° (WNW) 18:51:33
GONETS M04 29 Jul 18:49:22 18:58:00 66° 267° (W) 19:06:35
CUBESAT XI-V 29 Jul 18:53:02 18:57:17 36° 97° (E) 19:01:31 437.345
PCSat 29 Jul 18:55:25 19:00:00 28° 54° (NE) 19:04:39 145.827
CUTE-I 29 Jul 19:01:29 19:06:50 69° 258° (WSW) 19:12:12 437.470
SO-50 29 Jul 19:14:01 19:18:39 39° 55° (NE) 19:23:12 436.795
PRISM 29 Jul 19:36:22 19:39:32 22° 95° (E) 19:42:46 437.425
Cubesat XI-IV 29 Jul 19:45:47 19:50:15 26° 265° (W) 19:54:37 437.490
VERMONT LUNAR 29 Jul 19:50:44 19:53:54 78° 157° (SSE) 19:57:06 437.305
STRAND 1 29 Jul 19:52:11 19:57:03 45° 99° (E) 20:01:56 437.568
BRITE-PL 29 Jul 20:03:52 20:08:21 60° 76° (ENE) 20:12:35 437.365/2234.400
COMPASS 1 29 Jul 20:26:00 20:28:34 16° 70° (ENE) 20:31:18 437.405
GOMX 1 29 Jul 20:29:01 20:33:19 64° 76° (ENE) 20:37:28 467.674
Cosmos 2499 29 Jul 20:29:34 20:38:11 62° 267° (W) 20:46:50 435.465 / 435.565
CUBESAT XI-V 29 Jul 20:31:16 20:34:28 18° 291° (WNW) 20:37:31 437.345
DOVE 4 29 Jul 20:31:23 20:35:16 37° 74° (ENE) 20:39:07 437.250
CUTE 1.7 + AOD 2 29 Jul 20:33:27 20:37:14 32° 73° (ENE) 20:41:05 437.475
SEEDS 29 Jul 20:35:22 20:38:54 27° 72° (ENE) 20:42:32 437.485
PCSat 29 Jul 20:38:33 20:43:28 35° 250° (WSW) 20:48:19 145.827
CANX-2 29 Jul 20:41:06 20:45:09 45° 74° (ENE) 20:49:16 2200.000
HO-68 29 Jul 20:43:26 20:50:27 65° 72° (ENE) 20:57:32 435.675
RS-15 29 Jul 20:43:57 20:51:27 23° 104° (ESE) 20:59:40 29.354- 29.394
SO-50 29 Jul 20:55:13 20:58:57 21° 249° (WSW) 21:02:28 436.795
PHONESAT 2.4 29 Jul 20:56:53 21:00:06 35° 149° (SSE) 21:03:21 2401.200-2431.200
CINEMA 3 29 Jul 21:01:00 21:04:43 34° 73° (ENE) 21:08:31 145.822/145.860
ISS 29 Jul 21:07:12 21:09:08 15° 129° (SE) 21:11:11 145.825
AAUSAT CUBESAT 2 29 Jul 21:08:21 21:12:18 43° 74° (ENE) 21:16:19 437.432
PRISM 29 Jul 21:11:35 21:14:55 24° 289° (WNW) 21:18:10 437.425
DELFI C3 29 Jul 21:15:39 21:17:44 14° 69° (ENE) 21:19:59 145.870
ZACube-1 29 Jul 21:23:48 21:26:20 16° 69° (ENE) 21:29:02 437.345
VERMONT LUNAR 29 Jul 21:27:55 21:30:50 32° 351° (N) 21:33:46 437.305
STRAND 1 29 Jul 21:32:24 21:35:57 19° 293° (WNW) 21:39:19 437.568
UWE-3 29 Jul 21:40:13 21:43:56 33° 73° (ENE) 21:47:46 435.000/436.395/437.385
FUNcube-1 29 Jul 21:45:38 21:49:10 28° 72° (ENE) 21:52:50 145.935
CUBEBUG 2 29 Jul 21:49:40 21:53:44 58° 75° (ENE) 21:57:53 437.445
COMPASS 1 29 Jul 22:00:07 22:03:59 34° 263° (W) 22:07:50 437.405
Oscar 11 29 Jul 22:02:25 22:06:44 84° 78° (ENE) 22:11:06 145.826/435.025
UKube-1 29 Jul 22:05:56 22:07:57 13° 67° (ENE) 22:10:10 .
CUTE 1.7 + AOD 2 29 Jul 22:10:21 22:13:15 17° 268° (W) 22:16:01 437.475
DOVE 4 29 Jul 22:11:04 22:13:16 13° 268° (W) 22:15:14 437.250
SEEDS 29 Jul 22:11:28 22:14:41 20° 266° (W) 22:17:50 437.485
